Weather History for KMRF - July, 2013

Change the Weather History Date:

Monday, July 15, 2013

  Actual Average Record
Temperature  
Mean Temperature 66 °F -  
Max Temperature 73 °F 85 °F 95 °F (2011)
Min Temperature 59 °F 59 °F 53 °F (2007)
Cooling Degree Days 1    
Growing Degree Days 16 (Base 50)    
Moisture  
Dew Point 54 °F    
Average Humidity 69    
Maximum Humidity 88    
Minimum Humidity 35    
Precipitation  
Precipitation 0.00 in - - ()
Sea Level Pressure  
Sea Level Pressure 30.12 in    
Wind  
Wind Speed 12 mph (NNE)    
Max Wind Speed 26 mph    
Max Gust Speed 31 mph    
Visibility 10 miles    
Events      
Averages and records for this station are not official NWS values.
T = Trace of Precipitation, MM = Missing Value Source: NWS Daily Summary

Daily Weather History Graph

Daily Weather History Graph

Search for Another Location

Airport or City:

Trip Planner

Search our weather history database for the weather conditions in past years. The results will help you decide how hot, cold, wet, or windy it might be!

Date:

Astronomy

Jul. 15, 2013 Rise Set
Actual Time 7:04 AM CDT 8:59 PM CDT
Civil Twilight 6:37 AM CDT 9:26 PM CDT
Nautical Twilight 6:04 AM CDT 9:58 PM CDT
Astronomical Twilight 5:30 AM CDT 10:33 PM CDT
Moon 1:51 PM CDT (7/15) 12:45 AM CDT (7/15)
Length of Visible Light 14h 48m
Length of Day
13h 54m
Waxing Crescent, 45% of the Moon is Illuminated
Jul 15
Waxing Crescent
Jul 15
First Quarter
Jul 22
Full
Jul 29
Last Quarter
Aug 6
New

Hourly Weather History & Observations

Time (CDT) Temp. Dew Point Humidity Pressure Visibility Wind Dir Wind Speed Gust Speed Precip Events Conditions
12:15 AM 73.4 °F 44.6 °F 36% 30.04 in 10.0 mi SE 4.6 mph - N/A   Clear
12:35 AM 71.6 °F 42.8 °F 35% 30.05 in 10.0 mi Calm Calm - N/A   Clear
12:55 AM 69.8 °F 42.8 °F 38% 30.05 in 10.0 mi Calm Calm - N/A   Clear
1:15 AM 68.0 °F 41.0 °F 37% 30.04 in 10.0 mi NW 3.5 mph - N/A   Clear
1:35 AM 69.8 °F 42.8 °F 38% 30.04 in 10.0 mi NNW 8.1 mph - N/A   Clear
1:55 AM 69.8 °F 42.8 °F 38% 30.03 in 10.0 mi North 5.8 mph - N/A   Clear
2:15 AM 68.0 °F 42.8 °F 40% 30.03 in 10.0 mi NNW 6.9 mph - N/A   Clear
2:35 AM 68.0 °F 42.8 °F 40% 30.03 in 10.0 mi NNW 9.2 mph - N/A   Clear
2:55 AM 69.8 °F 42.8 °F 38% 30.03 in 10.0 mi NNW 8.1 mph - N/A   Clear
3:15 AM 69.8 °F 44.6 °F 40% 30.03 in 10.0 mi NW 5.8 mph - N/A   Clear
3:35 AM 68.0 °F 44.6 °F 43% 30.03 in 10.0 mi ENE 3.5 mph - N/A   Clear
3:55 AM 66.2 °F 44.6 °F 46% 30.03 in 10.0 mi NNE 10.4 mph - N/A   Scattered Clouds
4:15 AM 69.8 °F 44.6 °F 40% 30.04 in 10.0 mi NNE 8.1 mph - N/A   Mostly Cloudy
4:35 AM 71.6 °F 51.8 °F 50% 30.05 in 10.0 mi NE 13.8 mph 21.9 mph N/A   Mostly Cloudy
4:55 AM 68.0 °F 55.4 °F 64% 30.05 in 10.0 mi NNE 20.7 mph 27.6 mph N/A   Scattered Clouds
5:15 AM 66.2 °F 55.4 °F 68% 30.07 in 10.0 mi NNE 21.9 mph 29.9 mph N/A   Scattered Clouds
5:35 AM 66.2 °F 55.4 °F 68% 30.08 in 10.0 mi NNE 21.9 mph 26.5 mph N/A   Overcast
5:55 AM 64.4 °F 55.4 °F 73% 30.08 in 10.0 mi NNE 21.9 mph 29.9 mph N/A   Mostly Cloudy
6:15 AM 64.4 °F 55.4 °F 73% 30.08 in 10.0 mi NNE 26.5 mph 31.1 mph N/A   Overcast
6:35 AM 62.6 °F 57.2 °F 82% 30.08 in 10.0 mi NNE 25.3 mph 28.8 mph N/A   Mostly Cloudy
6:55 AM 62.6 °F 57.2 °F 82% 30.09 in 10.0 mi NNE 23.0 mph 26.5 mph N/A   Mostly Cloudy
7:15 AM 62.6 °F 57.2 °F 82% 30.10 in 10.0 mi NNE 20.7 mph 25.3 mph N/A   Overcast
7:35 AM 62.6 °F 57.2 °F 82% 30.11 in 10.0 mi NNE 19.6 mph 26.5 mph N/A   Overcast
7:55 AM 62.6 °F 57.2 °F 82% 30.11 in 10.0 mi NNE 18.4 mph - N/A   Overcast
8:15 AM 62.6 °F 57.2 °F 82% 30.12 in 10.0 mi NNE 19.6 mph 25.3 mph N/A   Overcast
8:35 AM 62.6 °F 57.2 °F 82% 30.12 in 10.0 mi NNE 17.3 mph - N/A   Overcast
8:55 AM 62.6 °F 57.2 °F 82% 30.12 in 10.0 mi NNE 16.1 mph - N/A   Overcast
9:15 AM 64.4 °F 57.2 °F 77% 30.13 in 10.0 mi NNE 15.0 mph 20.7 mph N/A   Overcast
9:35 AM 64.4 °F 57.2 °F 77% 30.13 in 10.0 mi NNE 17.3 mph - N/A   Overcast
9:55 AM 64.4 °F 57.2 °F 77% 30.14 in 10.0 mi NNE 16.1 mph 20.7 mph N/A   Overcast
10:15 AM 62.6 °F 59.0 °F 88% 30.14 in 10.0 mi NE 12.7 mph - N/A   Overcast
10:35 AM 66.2 °F 57.2 °F 73% 30.14 in 10.0 mi NNE 12.7 mph - N/A   Overcast
10:55 AM 66.2 °F 57.2 °F 73% 30.14 in 10.0 mi NE 13.8 mph - N/A   Mostly Cloudy
11:15 AM 68.0 °F 57.2 °F 68% 30.14 in 10.0 mi NE 13.8 mph - N/A   Mostly Cloudy
11:35 AM 68.0 °F 57.2 °F 68% 30.15 in 10.0 mi NNE 13.8 mph - N/A   Overcast
11:55 AM 69.8 °F 57.2 °F 64% 30.15 in 10.0 mi NE 17.3 mph - N/A   Overcast
12:15 PM 69.8 °F 57.2 °F 64% 30.15 in 10.0 mi NE 12.7 mph - N/A   Mostly Cloudy
12:35 PM 71.6 °F 57.2 °F 60% 30.15 in 10.0 mi NE 15.0 mph 20.7 mph N/A   Mostly Cloudy
12:55 PM 71.6 °F 57.2 °F 60% 30.15 in 10.0 mi NE 16.1 mph - N/A   Mostly Cloudy
1:15 PM 69.8 °F 57.2 °F 64% 30.16 in 10.0 mi ENE 15.0 mph 19.6 mph N/A   Overcast
1:35 PM 69.8 °F 57.2 °F 64% 30.16 in 10.0 mi NE 15.0 mph - N/A   Overcast
1:55 PM 69.8 °F 57.2 °F 64% 30.17 in 10.0 mi ENE 15.0 mph - N/A   Overcast
2:15 PM 68.0 °F 57.2 °F 68% 30.17 in 10.0 mi ENE 18.4 mph - N/A   Overcast
2:35 PM 66.2 °F 57.2 °F 73% 30.16 in 10.0 mi ENE 17.3 mph 20.7 mph N/A   Overcast
2:55 PM 66.2 °F 57.2 °F 73% 30.16 in 10.0 mi NE 12.7 mph - N/A   Overcast
3:15 PM 66.2 °F 59.0 °F 78% 30.16 in 10.0 mi NE 11.5 mph - N/A   Overcast
3:35 PM 66.2 °F 57.2 °F 73% 30.16 in 10.0 mi NE 12.7 mph - N/A   Overcast
3:55 PM 64.4 °F 59.0 °F 83% 30.16 in 10.0 mi NNE 16.1 mph - N/A   Overcast
4:15 PM 64.4 °F 59.0 °F 83% 30.15 in 10.0 mi NNE 19.6 mph - N/A   Overcast
4:35 PM 64.4 °F 57.2 °F 77% 30.15 in 10.0 mi NNE 16.1 mph 21.9 mph N/A   Overcast
4:55 PM 64.4 °F 57.2 °F 77% 30.14 in 10.0 mi NNE 19.6 mph - N/A   Overcast
5:15 PM 66.2 °F 57.2 °F 73% 30.14 in 10.0 mi NNE 23.0 mph - N/A   Overcast
5:35 PM 64.4 °F 57.2 °F 77% 30.14 in 10.0 mi NNE 17.3 mph - N/A   Overcast
5:55 PM 64.4 °F 55.4 °F 73% 30.14 in 10.0 mi NE 18.4 mph - N/A   Overcast
6:15 PM 64.4 °F 55.4 °F 73% 30.13 in 10.0 mi NNE 18.4 mph - N/A   Overcast
6:35 PM 62.6 °F 55.4 °F 77% 30.13 in 10.0 mi NE 21.9 mph - N/A   Overcast
6:55 PM 62.6 °F 55.4 °F 77% 30.13 in 10.0 mi NNE 17.3 mph 23.0 mph N/A   Overcast
7:15 PM 62.6 °F 55.4 °F 77% 30.14 in 10.0 mi NNE 16.1 mph - N/A   Overcast
7:35 PM 62.6 °F 55.4 °F 77% 30.14 in 10.0 mi NNE 19.6 mph - N/A   Overcast
7:55 PM 60.8 °F 55.4 °F 82% 30.15 in 10.0 mi NNE 18.4 mph - N/A   Overcast
8:15 PM 60.8 °F 55.4 °F 82% 30.16 in 10.0 mi NNE 18.4 mph 24.2 mph N/A   Overcast
8:35 PM 60.8 °F 55.4 °F 82% 30.16 in 10.0 mi NNE 15.0 mph - N/A   Overcast
8:55 PM 60.8 °F 55.4 °F 82% 30.16 in 10.0 mi NNE 17.3 mph 21.9 mph N/A   Overcast
9:15 PM 60.8 °F 55.4 °F 82% 30.17 in 10.0 mi NNE 17.3 mph - N/A   Overcast
9:35 PM 60.8 °F 53.6 °F 77% 30.18 in 10.0 mi NNE 19.6 mph 23.0 mph N/A   Overcast
9:55 PM 59.0 °F 53.6 °F 82% 30.19 in 10.0 mi NNE 15.0 mph 21.9 mph N/A   Overcast
10:15 PM 59.0 °F 53.6 °F 82% 30.19 in 10.0 mi NNE 17.3 mph - N/A   Overcast
10:35 PM 59.0 °F 53.6 °F 82% 30.20 in 10.0 mi NNE 13.8 mph - N/A   Mostly Cloudy
10:55 PM 59.0 °F 53.6 °F 82% 30.21 in 10.0 mi NNE 15.0 mph - N/A   Overcast
11:15 PM 60.8 °F 55.4 °F 82% 30.21 in 10.0 mi NNE 15.0 mph - N/A   Overcast
11:35 PM 60.8 °F 53.6 °F 77% 30.21 in 10.0 mi NE 11.5 mph - N/A   Overcast
11:55 PM 60.8 °F 53.6 °F 77% 30.21 in 10.0 mi NE 10.4 mph - N/A   Mostly Cloudy